User: anonymous   Login
Location: ??
(34.9170°N, 135.5016°E)
Time: 10:11:19
(UTC+00:00)
Language:

Cosmos 1606 Rocket - Orbit

View from above orbital plane
View from above orbital plane
View from above satellite
View from above satellite

Ground track
Ground track

The orbit data is extracted from the following two-line orbital elements,

1 15370U 84111B   21170.46197768  .00000073  00000-0  58922-5 0  9991
2 15370  82.5175  75.6119 0019310 268.6022  91.2981 14.83762224960043
Epoch (UTC): 19 June 2021 11:05:14
Eccentricity: 0.0019310
inclination: 82.5175°
perigee height: 604 km
apogee height: 631 km
right ascension of ascending node: 75.6119°
argument of perigee: 268.6022°
revolutions per day: 14.83762224
mean anomaly at epoch: 91.2981°
orbit number at epoch: 96004

The dashed part of the orbit path shows where the satellite is in the earth's shadow,  

DLR